Ogden, UT

9:58 AM MDT on August 19, 2017 (GMT -0600)
Ogden-Hinckley

Weather History for KOGD - May, 2013

Change the Weather History Date:

Tuesday, May 7, 2013

  Actual Average Record
Temperature  
Mean Temperature 58 °F -  
Max Temperature 66 °F 67 °F 89 °F (1934)
Min Temperature 50 °F 43 °F 27 °F (1965)
Degree Days  
Heating Degree Days 7    
Growing Degree Days 8 (Base 50)    
Moisture  
Dew Point 42 °F    
Average Humidity 66    
Maximum Humidity 86    
Minimum Humidity 30    
Precipitation  
Precipitation 0.23 in - - ()
Sea Level Pressure  
Sea Level Pressure 29.87 in    
Wind  
Wind Speed 9 mph (East)    
Max Wind Speed 34 mph    
Max Gust Speed 45 mph    
Visibility 9 miles    
Events Rain , Thunderstorm    
Averages and records for this station are not official NWS values.
T = Trace of Precipitation, MM = Missing Value Source: NWS Daily Summary

Daily Weather History Graph

Daily Weather History Graph

Search for Another Location

Airport or City:

Trip Planner

Search our weather history database for the weather conditions in past years. The results will help you decide how hot, cold, wet, or windy it might be!

Date:

Astronomy

May. 07, 2013 Rise Set
Actual Time 6:17 AM MDT 8:31 PM MDT
Civil Twilight 5:47 AM MDT 9:02 PM MDT
Nautical Twilight 5:09 AM MDT 9:40 PM MDT
Astronomical Twilight 4:28 AM MDT 10:22 PM MDT
Moon 4:55 AM MDT (5/7) 6:34 PM MDT (5/7)
Length of Visible Light 15h 15m
Length of Day
14h 13m
Waning Crescent, 5% of the Moon is Illuminated
May 7
Waning Crescent
May 9
New
May 17
First Quarter
May 24
Full
May 31
Last Quarter

Hourly Weather History & Observations

Time (MDT) Temp. Dew Point Humidity Pressure Visibility Wind Dir Wind Speed Gust Speed Precip Events Conditions
12:53 AM 54.0 °F 43.0 °F 66% 29.85 in 10.0 mi SSE 13.8 mph - 0.00 in Rain Light Rain
1:53 AM 51.1 °F 46.0 °F 83% 29.85 in 10.0 mi SSE 9.2 mph - 0.00 in Rain Light Rain
2:53 AM 51.1 °F 46.0 °F 83% 29.85 in 7.0 mi SE 3.5 mph - 0.03 in Rain Light Rain
3:53 AM 50.0 °F 45.0 °F 83% 29.86 in 10.0 mi Calm Calm - 0.03 in Rain Light Rain
4:53 AM 50.0 °F 46.0 °F 86% 29.86 in 10.0 mi NNE 4.6 mph - 0.02 in Rain Light Rain
5:53 AM 50.0 °F 45.0 °F 83% 29.86 in 10.0 mi NNE 6.9 mph - 0.00 in   Overcast
6:53 AM 50.0 °F 45.0 °F 83% 29.86 in 10.0 mi NE 4.6 mph - N/A   Overcast
7:53 AM 51.1 °F 45.0 °F 80% 29.86 in 10.0 mi NE 3.5 mph - N/A   Overcast
8:53 AM 53.1 °F 45.0 °F 74% 29.86 in 10.0 mi Calm Calm - N/A   Clear
9:53 AM 55.9 °F 43.0 °F 62% 29.86 in 10.0 mi Calm Calm - N/A   Clear
10:53 AM 57.9 °F 44.1 °F 60% 29.86 in 10.0 mi Variable 5.8 mph - N/A   Mostly Cloudy
11:53 AM 60.1 °F 39.9 °F 47% 29.85 in 10.0 mi North 3.5 mph - N/A   Scattered Clouds
12:53 PM 61.0 °F 39.0 °F 44% 29.84 in 10.0 mi Variable 5.8 mph - N/A   Mostly Cloudy
1:53 PM 64.9 °F 39.9 °F 40% 29.81 in 10.0 mi NW 9.2 mph - N/A   Clear
2:53 PM 62.1 °F 37.9 °F 41% 29.82 in 10.0 mi WNW 8.1 mph - N/A   Overcast
3:53 PM 66.0 °F 37.9 °F 36% 29.81 in 10.0 mi North 8.1 mph 16.1 mph N/A   Clear
4:53 PM 64.9 °F 35.1 °F 33% 29.78 in 10.0 mi NNW 9.2 mph - N/A   Mostly Cloudy
5:53 PM 66.0 °F 34.0 °F 30% 29.78 in 10.0 mi Variable 4.6 mph - N/A   Clear
6:53 PM 64.0 °F 36.0 °F 35% 29.79 in 10.0 mi NNW 9.2 mph - N/A   Clear
7:53 PM 51.1 °F 45.0 °F 80% 29.86 in 3.0 mi South 26.5 mph 40.3 mph 0.04 in Rain Rain
7:56 PM 51.8 °F 44.6 °F 76% 29.93 in 2.5 mi South 34.5 mph 44.9 mph 0.02 in Rain , Thunderstorm Thunderstorms and Rain
8:04 PM 50.0 °F 44.6 °F 82% 29.95 in 1.5 mi South 25.3 mph 44.9 mph 0.10 in Rain , Thunderstorm Heavy Thunderstorms and Rain
8:09 PM 51.8 °F 44.6 °F 76% 29.96 in 4.0 mi South 26.5 mph 34.5 mph 0.10 in Rain , Thunderstorm Light Thunderstorms and Rain
8:44 PM 50.0 °F 44.6 °F 82% 29.98 in 10.0 mi South 21.9 mph 29.9 mph 0.11 in Rain Light Rain
8:53 PM 50.0 °F 44.1 °F 80% 29.91 in 10.0 mi SSE 19.6 mph 28.8 mph 0.11 in Rain Light Rain
9:53 PM 50.0 °F 43.0 °F 77% 29.93 in 10.0 mi Calm Calm - 0.00 in Rain Light Rain
10:53 PM 50.0 °F 42.1 °F 74% 29.91 in 10.0 mi Calm Calm - 0.00 in   Partly Cloudy
11:53 PM 50.0 °F 43.0 °F 77% 29.90 in 10.0 mi ENE 3.5 mph - N/A   Mostly Cloudy